"Pseudo-MPEC" for P11Jo67

Created 2023 Sep 19 16:22:30 UT using Find_Orb

Click here for an explanation of pseudo-MPECs

 
 Astrometry: 
     P11Jo67* C2023 09 13k*Wb8xmL9D1Io/51_KwcvjobCPm5L/K=:],5AstrometryMYOLjRF51
     P11Jo67  C2023 09 13ASgredacted;,8l]UBM$_KT,:[;@xUWXbl,uuXe(SrI:0wf^%Dw*F51
     P11Jo67  C2023 09 13y)DZEd2TukhQk=cVE(o091.YIg#GqV*ojO4#*/HQylo:X+/CDtQWF51
     P11Jo67  C2023 09 13xrZyi7)8[3L^=\`=39c\Ufwhq`1o5Lg4`fWQIo3\BKSX2qEK4('YF51
     P11Jo67  C2023 09 13IK?Zt.vu0a;gl?6Y!X+/jq6Bn#oQtJ`oY6Iclick.F0$gWC$6x6AF52
     P11Jo67  C2023 09 13-'lgqi\5F+@MYj3(IJR2J68s3p01,+sgR`^AvMg'mhere:;^NCaRF52
     P11Jo67 3C2023 09 15us8/n1Bu.%['l3A+.Xuy6:^%p3yLKforbu7_9fm!Nehopv3(rgb.T14
     P11Jo67 3C2023 09 15'?`vS_X!wI:76a/k5NZ_xVr[N9C6explanationA$:dlG#o$FO?7T14
     P11Jo67 3C2023 09 15?G1puEUN!'/*AR@V7V@)$wR^yguj-U7rKg=Zorb$)Vwyg4Uaq3_JT14

Station data:
(F51) Pan-STARRS 1, Haleakala  (N20.707234 W156.255910)  US/Hawaii.
   Observers J. Bulger, T. Lowe, A. Schultz, M. Willman. Measurers K.
   Chambers, S. Chastel, T. de Boer, L. Denneau, J. Fairlamb, H. Flewelling,
   M. Huber, C.-C. Lin, E. Magnier, Y. Ramanjooloo, R. Wainscoat, R. Weryk.
   1.8-m Ritchey-Chrétien + CCD.
(F52) Pan-STARRS 2, Haleakala  (N20.707382 W156.255910)  US/Hawaii.
   Observers J. Bulger, T. Dukes, T. Lowe, A. Schultz, M. Willman. Measurers
   K. Chambers, S. Chastel, T. de Boer, L. Denneau, J. Fairlamb, H.
   Flewelling, M. Huber, C.-C. Lin, E. Magnier, Y. Ramanjooloo, R. Wainscoat,
   R. Weryk. 1.8-m Ritchey-Chrétien + CCD.
(T14) Mauna Kea-UH/Tholen NEO Follow-Up (CFHT)  (N19.825252 W155.468876)
   US/Hawaii.  Observer R. Weryk. 3.6-m Canada-France-Hawaii Telescope.

Orbital elements:  P11Jo67
   Perihelion 2024 Sep 25.18005 +/- 52.4 TT =  4:19:16 (JD 2460578.68005)
Epoch 2023 Sep 15.0 TT = JDT 2460202.5   Earth MOID: 0.6633   Ma: 0.0036
M 216.85991320 +/- 20               (J2000 ecliptic)             AutoNEOCP
n   0.38050950 +/- 0.00495          Peri.  332.48384 +/- 16
a   1.88607535 +/- 0.0163           Node   163.47038 +/- 0.044
e   0.1314666 +/- 0.00961           Incl.   24.30251 +/- 1.0
P   2.59/946.08d           H 19.61  G  0.15   U  9.3
q 1.63811942 +/- 0.00895    Q 2.13403127 +/- 0.0355
From 9 observations 2023 Sept. 13-15; mean residual 0".11
Residuals in arcseconds: 
230913 F51  .17-  .05-    230913 F51  .31+  .03-    230915 T14  .01+  .01-    
230913 F51  .00   .03+    230913 F52  .16+  .12+    230915 T14  .03-  .01-    
230913 F51  .10-  .04+    230913 F52  .19-  .12-    230915 T14  .01+  .02+    

Ephemerides (geocentric):
Date (UTC) HH   RA             Dec           delta  r     elong  mag " sig PA
---- --------  ------------   ------------  ------ ------ -----  --- --------
2023 09 19 16  22 37 56.764   -10 58 35.45  1.1161 2.0907 160.7 22.1 5.73  12
2023 09 19 17  22 37 54.652   -10 59 24.92  1.1162 2.0907 160.6 22.1 5.82  12
2023 09 19 18  22 37 52.542   -11 00 14.37  1.1163 2.0906 160.6 22.1 5.91  12
2023 09 19 19  22 37 50.434   -11 01 03.79  1.1165 2.0906 160.5 22.1 6.00  12
2023 09 19 20  22 37 48.328   -11 01 53.18  1.1166 2.0906 160.5 22.1 6.10  12
2023 09 19 21  22 37 46.225   -11 02 42.54  1.1168 2.0905 160.4 22.1 6.19  12
2023 09 19 22  22 37 44.123   -11 03 31.88  1.1169 2.0905 160.4 22.1 6.28  12
2023 09 19 23  22 37 42.023   -11 04 21.19  1.1171 2.0905 160.3 22.1 6.38  12
2023 09 20 00  22 37 39.926   -11 05 10.47  1.1172 2.0904 160.2 22.1 6.47  12
2023 09 20 01  22 37 37.830   -11 05 59.72  1.1174 2.0904 160.2 22.1 6.57  12
2023 09 20 02  22 37 35.737   -11 06 48.94  1.1175 2.0904 160.1 22.1 6.66  12
2023 09 20 03  22 37 33.646   -11 07 38.14  1.1177 2.0903 160.1 22.1 6.76  12
2023 09 20 04  22 37 31.557   -11 08 27.31  1.1179 2.0903 160.0 22.1 6.86  12
2023 09 20 05  22 37 29.470   -11 09 16.45  1.1180 2.0903 160.0 22.1 6.96  12
2023 09 20 06  22 37 27.385   -11 10 05.57  1.1182 2.0902 159.9 22.1 7.05  12
2023 09 20 07  22 37 25.302   -11 10 54.65  1.1183 2.0902 159.9 22.1 7.15  12
2023 09 20 08  22 37 23.222   -11 11 43.71  1.1185 2.0902 159.8 22.1 7.25  12
2023 09 20 09  22 37 21.143   -11 12 32.74  1.1186 2.0901 159.8 22.1 7.35  12
2023 09 20 10  22 37 19.067   -11 13 21.74  1.1188 2.0901 159.7 22.1 7.45  12
2023 09 20 11  22 37 16.993   -11 14 10.71  1.1189 2.0900 159.7 22.1 7.55  12
2023 09 20 12  22 37 14.921   -11 14 59.65  1.1191 2.0900 159.6 22.1 7.65  12
2023 09 20 13  22 37 12.851   -11 15 48.57  1.1192 2.0900 159.5 22.1 7.75  12
2023 09 20 14  22 37 10.783   -11 16 37.45  1.1194 2.0899 159.5 22.1 7.85  12
2023 09 20 15  22 37 08.718   -11 17 26.31  1.1196 2.0899 159.4 22.1 7.96  12
2023 09 20 16  22 37 06.654   -11 18 15.14  1.1197 2.0899 159.4 22.1 8.06  12
2023 09 20 17  22 37 04.593   -11 19 03.94  1.1199 2.0898 159.3 22.1 8.16  12
2023 09 20 18  22 37 02.534   -11 19 52.71  1.1200 2.0898 159.3 22.1 8.27  12
2023 09 20 19  22 37 00.477   -11 20 41.45  1.1202 2.0898 159.2 22.1 8.37  12
2023 09 20 20  22 36 58.422   -11 21 30.17  1.1204 2.0897 159.2 22.1 8.48  12
2023 09 20 21  22 36 56.370   -11 22 18.85  1.1205 2.0897 159.1 22.1 8.58  12
2023 09 20 22  22 36 54.320   -11 23 07.51  1.1207 2.0897 159.1 22.1 8.69  11
2023 09 20 23  22 36 52.272   -11 23 56.13  1.1208 2.0896 159.0 22.1 8.79  11
2023 09 21 00  22 36 50.226   -11 24 44.73  1.1210 2.0896 158.9 22.1 8.90  11
2023 09 21 01  22 36 48.182   -11 25 33.30  1.1212 2.0896 158.9 22.1 9.01  11
2023 09 21 02  22 36 46.141   -11 26 21.83  1.1213 2.0895 158.8 22.1 9.11  11
2023 09 21 03  22 36 44.102   -11 27 10.34  1.1215 2.0895 158.8 22.1 9.22  11
2023 09 21 04  22 36 42.065   -11 27 58.82  1.1216 2.0894 158.7 22.1 9.33  11
2023 09 21 05  22 36 40.030   -11 28 47.27  1.1218 2.0894 158.7 22.1 9.44  11
2023 09 21 06  22 36 37.998   -11 29 35.69  1.1220 2.0894 158.6 22.1 9.55  11
2023 09 21 07  22 36 35.968   -11 30 24.08  1.1221 2.0893 158.6 22.1 9.66  11
2023 09 21 08  22 36 33.940   -11 31 12.44  1.1223 2.0893 158.5 22.1 9.77  11
2023 09 21 09  22 36 31.914   -11 32 00.77  1.1225 2.0893 158.5 22.1 9.88  11
2023 09 21 10  22 36 29.891   -11 32 49.07  1.1226 2.0892 158.4 22.1 9.99  11
2023 09 21 11  22 36 27.870   -11 33 37.35  1.1228 2.0892 158.4 22.1 10.1  11
2023 09 21 12  22 36 25.851   -11 34 25.59  1.1230 2.0892 158.3 22.1 10.2  11
2023 09 21 13  22 36 23.834   -11 35 13.80  1.1231 2.0891 158.2 22.1 10.3  11
2023 09 21 14  22 36 21.820   -11 36 01.98  1.1233 2.0891 158.2 22.1 10.4  11
2023 09 21 15  22 36 19.808   -11 36 50.13  1.1235 2.0891 158.1 22.1 10.6  11